Regional Weather Roundup
Issued by NWS

Home | Current Version | Previous Version | Graphics & Text | Print | Product List | Glossary On
Versions: 1 2 3 4 5 6 7 8 9 10 11 12 13 14 15 16 17 18 19 20 21 22 23 24 25 26 27 28 29 30 31 32 33 34 35 36 37 38 39 40 41 42 43 44 45 46 47 48 49 50
000
ASUS43 KOAX 270302
RWRNE

WEATHER ROUNDUP FOR NEBRASKA
NATIONAL WEATHER SERVICE OMAHA NE
900 PM CST THU FEB 26 2015

NOTES: SATELLITE DATA IS BEING USED TO AUGMENT CLOUD COVER ABOVE
       12000 FEET.
       "FAIR" INDICATES FEW OR NO CLOUDS BELOW 12,000 FEET WITH NO
       SIGNIFICANT WEATHER AND/OR OBSTRUCTIONS TO VISIBILITY.

  * THESE STATIONS DO NOT REPORT WEATHER SUCH AS RAIN...SNOW OR FOG.

NEZ001>004-019>022-054>056-270400-
NEBRASKA PANHANDLE

CITY           SKY/WX    TMP DP  RH WIND       PRES   REMARKS
SCOTTSBLUFF    CLOUDY     9   1  70 E10       30.30S WCI  -5
ALLIANCE       CLEAR      3  -2  79 NE6       30.30F WCI  -8
CHADRON        CLEAR     -2  -8  76 CALM      30.38S
SIDNEY         MOCLDY    10   0  63 E8        30.27S WCI  -2
$$

NEZ057>060-069>072-079>082-270400-
SOUTHWEST NEBRASKA

CITY           SKY/WX    TMP DP  RH WIND       PRES   REMARKS
NORTH PLATTE   CLEAR      6  -6  57 NE6       30.42R WCI  -4
IMPERIAL         N/A      9  -1  64 NE6       30.36R WCI  -1
MCCOOK         CLEAR     11  -3  53 NE7       30.42R WCI   0
$$

NEZ005>010-023>029-035>040-094-270400-
NORTH CENTRAL NEBRASKA

CITY           SKY/WX    TMP DP  RH WIND       PRES   REMARKS
VALENTINE      CLEAR      1  -4  79 CALM      30.44F
BROKEN BOW     CLEAR      1  -8  66 N7        30.44S WCI -12
ORD            CLEAR      4  -6  63 NW5       30.49R WCI  -5
$$

NEZ041-046>049-061>064-073>077-083>087-270400-
SOUTH CENTRAL NEBRASKA

CITY           SKY/WX    TMP DP  RH WIND       PRES   REMARKS
GRAND ISLAND   CLEAR      4  -3  73 NE3       30.52R
HASTINGS       CLEAR      4  -6  63 NE6       30.48R WCI  -7
KEARNEY *      CLEAR      3  -8  60 NE7       30.48R WCI  -9
YORK             N/A      5   0  78 N3        30.52R
$$

NEZ011>018-030>034-042>045-270400-
NORTHEAST NEBRASKA

CITY           SKY/WX    TMP DP  RH WIND       PRES   REMARKS
NORFOLK        CLEAR      3  -3  76 N7        30.51S WCI  -9
COLUMBUS *     CLEAR      1  -9  60 CALM      30.54R
TEKAMAH        CLEAR      3  -4  72 NW8       30.57R WCI -10
$$

NEZ050>053-065>068-078-088>093-270400-
SOUTHEAST NEBRASKA

CITY           SKY/WX    TMP DP  RH WIND       PRES   REMARKS
LINCOLN        CLEAR      5  -2  72 N5        30.57R WCI  -4
OMAHA EPPLEY   CLEAR      3  -2  79 N5        30.57R WCI  -6
FALLS CITY     CLEAR      6  -3  66 CALM      30.57R
$$

NEZ044-045-051>053-067-270400-
OMAHA AREA

CITY           SKY/WX    TMP DP  RH WIND       PRES   REMARKS
OMAHA EPPLEY   CLEAR      3  -2  79 N5        30.57R WCI  -6
$$



USA.gov is the U.S. government's official web portal to all federal, state and local government web resources and services.